Weather History for Frankfort, MI

Change the Weather History Date:

Wednesday, October 3, 2012

  Actual Average (KTVC) Record (KTVC)
Temperature  
Mean Temperature 55 °F 53 °F  
Max Temperature 70 °F 63 °F 87 °F (1922)
Min Temperature 40 °F 43 °F 27 °F (1974)
Degree Days  
Heating Degree Days 10 12  
Month to date heating degree days 36  
Since 1 July heating degree days 298  
Cooling Degree Days 0 0  
Month to date cooling degree days 0  
Year to date cooling degree days 407  
Growing Degree Days 5 (Base 50)    
Moisture  
Dew Point 49 °F    
Average Humidity 78    
Maximum Humidity 90    
Minimum Humidity 46    
Precipitation  
Precipitation 0.00 in 0.11 in 2.01 in (2006)
Month to date precipitation 0.33  
Year to date precipitation 24.97  
Sea Level Pressure  
Sea Level Pressure 29.97 in    
Wind  
Wind Speed 1 mph (ENE)    
Max Wind Speed 7 mph    
Max Gust Speed -    
Visibility 7 miles    
Events Fog , Rain    
T = Trace of Precipitation, MM = Missing Value Source: NWS Daily Summary

Daily Weather History Graph

Daily Weather History Graph

Search for Another Location

Airport:

Trip Planner

Search our weather history database for the weather conditions in past years. The results will help you decide how hot, cold, wet, or windy it might be!

Date:

Astronomy

Oct. 03, 2012 Rise Set
Actual Time 7:45 AM EDT 7:20 PM EDT
Civil Twilight 7:16 AM EDT 7:49 PM EDT
Nautical Twilight 6:42 AM EDT 8:23 PM EDT
Astronomical Twilight 6:08 AM EDT 8:57 PM EDT
Moon 9:02 PM EDT (10/3) 11:18 AM EDT (10/3)
Length of Visible Light 12h 33m
Length of Day
11h 35m
Waning Gibbous, 89% of the Moon is Illuminated
Oct 3
Waning Gibbous
Oct 8
Last Quarter
Oct 15
New
Oct 21
First Quarter
Oct 29
Full

Hourly Weather History & Observations

Time (EDT) Temp. Dew Point Humidity Pressure Visibility Wind Dir Wind Speed Gust Speed Precip Events Conditions
12:11 AM 50.5 °F 47.7 °F 90% 29.95 in 5.0 mi Calm Calm - N/A   Clear
12:32 AM 48.4 °F 45.5 °F 90% 29.95 in 1.0 mi Calm Calm - N/A   Mist
12:52 AM 47.8 °F 45.0 °F 90% 29.95 in 0.2 mi Calm Calm - N/A Fog Fog
1:12 AM 48.2 °F 45.1 °F 89% 29.95 in 0.5 mi Calm Calm - N/A Fog Fog
1:32 AM 46.0 °F 43.2 °F 90% 29.95 in 4.0 mi Calm Calm - N/A   Clear
1:52 AM 46.4 °F 43.3 °F 89% 29.95 in 3.0 mi Calm Calm - N/A   Clear
2:12 AM 44.8 °F 41.9 °F 90% 29.95 in - Calm Calm - N/A   Unknown
2:32 AM 45.1 °F 41.7 °F 88% 29.95 in - Calm Calm - N/A   Unknown
2:52 AM 45.1 °F 41.9 °F 88% 29.95 in 0.8 mi Calm Calm - N/A   Mist
3:13 AM 43.5 °F 40.3 °F 88% 29.95 in 0.5 mi Calm Calm - N/A Fog Fog
3:33 AM 43.0 °F 40.1 °F 90% 29.95 in 2.0 mi Calm Calm - N/A   Clear
3:53 AM 43.0 °F 39.9 °F 89% 29.95 in 1.8 mi Calm Calm - N/A   Mist
4:13 AM 42.3 °F 39.6 °F 90% 29.95 in 1.0 mi Calm Calm - N/A   Overcast
4:33 AM 42.1 °F 39.4 °F 90% 29.95 in 0.5 mi Calm Calm - N/A Fog Fog
4:53 AM 42.1 °F 39.2 °F 90% 29.96 in 1.0 mi Calm Calm - N/A   Mist
5:13 AM 41.5 °F 38.7 °F 89% 29.95 in 2.0 mi Calm Calm - N/A   Clear
5:33 AM 41.0 °F 38.3 °F 90% 29.96 in 7.0 mi Calm Calm - N/A   Clear
5:53 AM 41.4 °F 38.5 °F 89% 29.96 in 4.0 mi Calm Calm - N/A   Clear
6:13 AM 41.2 °F 38.3 °F 89% 29.97 in 1.5 mi Calm Calm - N/A   Mist
6:34 AM 40.3 °F 37.6 °F 90% 29.97 in 10.0 mi Calm Calm - N/A   Clear
6:54 AM 40.3 °F 37.4 °F 89% 29.98 in 7.0 mi Calm Calm - N/A   Clear
7:14 AM 42.1 °F 39.2 °F 90% 29.98 in 5.0 mi Calm Calm - N/A   Clear
7:34 AM 41.0 °F 37.8 °F 88% 29.98 in 5.0 mi Calm Calm - N/A   Scattered Clouds
7:54 AM 41.7 °F 37.9 °F 86% 29.98 in 10.0 mi Calm Calm - N/A   Scattered Clouds
8:14 AM 40.6 °F 37.4 °F 88% 29.98 in 10.0 mi Calm Calm - N/A   Clear
8:34 AM 42.4 °F 39.2 °F 88% 29.98 in 10.0 mi Calm Calm - N/A   Mostly Cloudy
8:54 AM 45.7 °F 42.6 °F 89% 29.99 in 5.0 mi Calm Calm - N/A   Mostly Cloudy
9:15 AM 47.7 °F 44.4 °F 89% 29.99 in 7.0 mi Calm Calm - N/A   Mostly Cloudy
9:35 AM 50.2 °F 46.8 °F 88% 29.98 in 10.0 mi Calm Calm - N/A   Overcast
9:55 AM 52.0 °F 48.2 °F 87% 29.99 in 10.0 mi Calm Calm - N/A   Overcast
10:15 AM 56.5 °F 51.8 °F 84% 29.98 in 10.0 mi Calm Calm - N/A   Overcast
10:35 AM 57.4 °F 50.9 °F 79% 29.99 in 10.0 mi SE 3.5 mph - N/A   Overcast
11:15 AM 61.5 °F 53.8 °F 76% 29.99 in 10.0 mi Calm Calm - N/A   Overcast
11:35 AM 64.0 °F 53.4 °F 68% 29.99 in 10.0 mi Calm Calm - N/A   Overcast
11:55 AM 66.6 °F 53.6 °F 63% 29.99 in 10.0 mi Calm Calm - N/A   Overcast
12:15 PM 66.6 °F 52.7 °F 61% 29.99 in 10.0 mi Calm Calm - N/A   Overcast
12:36 PM 67.5 °F 51.8 °F 57% 29.98 in 10.0 mi Calm Calm - N/A   Overcast
12:51 PM 68.0 °F 52.0 °F 56% 29.98 in 10.0 mi Calm Calm - N/A   Overcast
1:11 PM 68.4 °F 52.0 °F 56% 29.97 in 10.0 mi NE 3.5 mph - N/A   Overcast
1:31 PM 69.1 °F 47.8 °F 47% 29.96 in 10.0 mi NE 3.5 mph - N/A   Overcast
1:51 PM 69.3 °F 47.8 °F 46% 29.96 in 10.0 mi ENE 3.5 mph - N/A   Overcast
2:11 PM 69.4 °F 50.4 °F 51% 29.95 in 10.0 mi ENE 4.6 mph - N/A   Overcast
2:31 PM 70.5 °F 51.8 °F 51% 29.95 in 10.0 mi NNE 4.6 mph - N/A   Overcast
2:51 PM 69.1 °F 52.9 °F 56% 29.95 in 10.0 mi NNE 4.6 mph - N/A   Overcast
3:12 PM 68.4 °F 54.1 °F 60% 29.95 in 10.0 mi NNE 4.6 mph - N/A   Overcast
3:32 PM 67.8 °F 51.1 °F 55% 29.96 in 10.0 mi NE 4.6 mph - N/A   Overcast
3:52 PM 67.1 °F 50.2 °F 55% 29.96 in 10.0 mi NNE 4.6 mph - N/A   Overcast
4:12 PM 67.1 °F 50.2 °F 55% 29.96 in 10.0 mi NNE 4.6 mph - N/A   Overcast
4:32 PM 67.1 °F 50.5 °F 55% 29.95 in 10.0 mi NNE 5.8 mph - N/A   Overcast
4:52 PM 66.0 °F 50.2 °F 57% 29.95 in 10.0 mi North 5.8 mph - N/A   Overcast
5:12 PM 65.3 °F 53.2 °F 65% 29.95 in 10.0 mi NNE 6.9 mph - N/A   Overcast
5:32 PM 65.3 °F 53.4 °F 65% 29.95 in 10.0 mi NNE 3.5 mph - N/A   Overcast
5:52 PM 64.9 °F 54.0 °F 68% 29.95 in 10.0 mi NNE 3.5 mph - N/A   Overcast
6:13 PM 65.3 °F 54.5 °F 68% 29.96 in 10.0 mi Calm Calm - N/A   Overcast
6:33 PM 65.3 °F 54.5 °F 68% 29.96 in 10.0 mi Calm Calm - N/A   Overcast
6:53 PM 64.6 °F 55.4 °F 72% 29.96 in 10.0 mi Calm Calm - N/A   Overcast
7:13 PM 64.4 °F 55.8 °F 73% 29.96 in 10.0 mi Calm Calm - N/A   Overcast
7:33 PM 64.6 °F 57.4 °F 77% 29.97 in 10.0 mi SE 4.6 mph - N/A   Overcast
7:53 PM 64.4 °F 57.6 °F 78% 29.98 in 10.0 mi SSE 4.6 mph - N/A   Overcast
8:13 PM 62.8 °F 58.5 °F 86% 29.98 in 3.0 mi Calm Calm - N/A   Drizzle
8:33 PM 62.4 °F 59.0 °F 89% 29.98 in 2.0 mi Calm Calm - N/A   Light Drizzle
8:53 PM 62.6 °F 59.0 °F 88% 29.99 in 1.8 mi Calm Calm - N/A   Drizzle
9:14 PM 61.3 °F 58.1 °F 89% 29.99 in 3.0 mi SSW 3.5 mph - N/A   Light Drizzle
9:34 PM 61.2 °F 58.1 °F 90% 29.99 in 3.0 mi SSW 3.5 mph - N/A   Drizzle
9:54 PM 61.0 °F 57.7 °F 89% 29.99 in 4.0 mi Calm Calm - N/A   Drizzle
10:14 PM 61.0 °F 57.7 °F 89% 29.99 in 5.0 mi SSE 3.5 mph - N/A   Light Drizzle
10:34 PM 60.8 °F 57.6 °F 89% 29.99 in 7.0 mi SSE 4.6 mph - N/A   Overcast
10:54 PM 60.8 °F 57.4 °F 88% 29.99 in 5.0 mi SSE 3.5 mph - N/A   Light Drizzle
11:14 PM 60.8 °F 57.6 °F 89% 29.99 in 5.0 mi SSE 3.5 mph - N/A   Light Drizzle
11:34 PM 60.4 °F 57.2 °F 89% 30.00 in 4.0 mi Calm Calm - N/A Rain Light Rain
11:54 PM 60.4 °F 57.0 °F 88% 30.00 in 3.0 mi Calm Calm - N/A   Drizzle